Weather History for Tracy, MN

Change the Weather History Date:

Sunday, April 7, 2013

  Actual Average (KMML) Record (KMML)
Temperature  
Mean Temperature 38 °F -  
Max Temperature 48 °F 54 °F 85 °F (1988)
Min Temperature 29 °F 32 °F 12 °F (2007)
Degree Days  
Heating Degree Days 26    
Moisture  
Dew Point 34 °F    
Average Humidity 88    
Maximum Humidity 96    
Minimum Humidity 64    
Precipitation  
Precipitation 0.34 in - - ()
Sea Level Pressure  
Sea Level Pressure 29.82 in    
Wind  
Wind Speed 7 mph (NE)    
Max Wind Speed 15 mph    
Max Gust Speed 17 mph    
Visibility 5 miles    
Events Rain    
Averages and records for this station are not official NWS values.
T = Trace of Precipitation, MM = Missing Value Source: NWS Daily Summary

Daily Weather History Graph

Daily Weather History Graph

Search for Another Location

Airport:

Trip Planner

Search our weather history database for the weather conditions in past years. The results will help you decide how hot, cold, wet, or windy it might be!

Date:

Astronomy

Apr. 07, 2013 Rise Set
Actual Time 6:52 AM CDT 7:57 PM CDT
Civil Twilight 6:22 AM CDT 8:27 PM CDT
Nautical Twilight 5:47 AM CDT 9:02 PM CDT
Astronomical Twilight 5:10 AM CDT 9:40 PM CDT
Moon 5:16 AM CDT (4/7) 5:26 PM CDT (4/7)
Length of Visible Light 14h 04m
Length of Day
13h 05m
Waning Crescent, 8% of the Moon is Illuminated
Apr 7
Waning Crescent
Apr 10
New
Apr 18
First Quarter
Apr 25
Full
May 2
Last Quarter

Hourly Weather History & Observations

Time (CDT) Temp. Windchill Dew Point Humidity Pressure Visibility Wind Dir Wind Speed Gust Speed Precip Events Conditions
12:17 AM 32.0 °F 24.2 °F 29.7 °F 91% 29.81 in 7.0 mi NNW 9.2 mph - N/A   Clear
12:38 AM 31.5 °F 22.9 °F 29.3 °F 92% 29.83 in 7.0 mi NW 10.4 mph - N/A   Clear
12:58 AM 31.5 °F 21.8 °F 29.3 °F 92% 29.84 in 7.0 mi NW 12.7 mph - N/A   Clear
1:18 AM 31.1 °F 22.4 °F 29.3 °F 93% 29.83 in 5.0 mi NNW 10.4 mph - N/A   Scattered Clouds
1:38 AM 31.3 °F 23.9 °F 29.3 °F 92% 29.84 in 7.0 mi NW 8.1 mph - N/A   Scattered Clouds
1:58 AM 32.0 °F 21.6 °F 29.7 °F 91% 29.85 in 5.0 mi NW 15.0 mph - N/A   Overcast
2:17 AM 32.0 °F 24.2 °F 29.5 °F 90% 29.85 in 5.0 mi NW 9.2 mph - N/A   Overcast
2:38 AM 32.0 °F 23.6 °F 29.3 °F 90% 29.84 in 7.0 mi NW 10.4 mph 16.1 mph N/A   Overcast
2:58 AM 32.0 °F 23.6 °F 29.3 °F 90% 29.84 in 7.0 mi NNW 10.4 mph - N/A   Overcast
3:17 AM 31.6 °F 23.7 °F 29.1 °F 90% 29.84 in 5.0 mi NNW 9.2 mph - N/A   Overcast
3:38 AM 31.5 °F 24.9 °F 29.3 °F 92% 29.84 in 5.0 mi NNW 6.9 mph - N/A   Overcast
3:58 AM 31.6 °F 23.7 °F 29.1 °F 90% 29.85 in 5.0 mi NNW 9.2 mph - N/A   Overcast
4:18 AM 31.5 °F 24.2 °F 29.1 °F 91% 29.86 in 4.0 mi NNW 8.1 mph - N/A   Overcast
4:38 AM 31.1 °F 23.1 °F 29.1 °F 92% 29.86 in 4.0 mi NNW 9.2 mph - N/A   Overcast
4:58 AM 31.1 °F 23.7 °F 29.1 °F 92% 29.87 in 5.0 mi NNW 8.1 mph - N/A   Overcast
5:18 AM 30.6 °F 23.1 °F 28.4 °F 92% 29.87 in 5.0 mi NNW 8.1 mph - N/A   Overcast
5:37 AM 30.7 °F 22.6 °F 28.9 °F 93% 29.87 in 5.0 mi NNW 9.2 mph - N/A   Overcast
5:58 AM 30.6 °F 23.8 °F 28.8 °F 93% 29.87 in 5.0 mi North 6.9 mph - N/A   Overcast
6:18 AM 30.2 °F 22.6 °F 28.4 °F 93% 29.87 in 5.0 mi North 8.1 mph - N/A   Overcast
6:38 AM 30.2 °F 24.3 °F 28.4 °F 93% 29.88 in 5.0 mi North 5.8 mph - N/A   Overcast
6:58 AM 30.2 °F - 28.4 °F 93% 29.89 in 5.0 mi Calm Calm - N/A   Overcast
7:18 AM 30.2 °F - 28.4 °F 93% 29.89 in 4.0 mi Calm Calm - N/A   Overcast
7:38 AM 30.2 °F - 28.8 °F 94% 29.89 in 4.0 mi Calm Calm - N/A   Overcast
7:58 AM 30.2 °F - 28.8 °F 94% 29.90 in 3.0 mi Calm Calm - N/A   Overcast
8:17 AM 29.8 °F 24.9 °F 28.4 °F 94% 29.90 in 3.0 mi North 4.6 mph - N/A   Overcast
8:37 AM 29.7 °F - 28.4 °F 95% 29.90 in 3.0 mi Calm Calm - N/A   Overcast
8:58 AM 29.7 °F - 28.4 °F 95% 29.91 in 2.5 mi Calm Calm - N/A   Overcast
9:18 AM 30.0 °F - 28.8 °F 95% 29.91 in 2.5 mi Calm Calm - N/A   Overcast
9:38 AM 30.2 °F - 29.1 °F 96% 29.91 in 2.5 mi Calm Calm - N/A   Overcast
9:57 AM 30.4 °F - 29.1 °F 95% 29.91 in 3.0 mi Calm Calm - N/A   Overcast
10:17 AM 30.2 °F - 28.6 °F 94% 29.91 in 3.0 mi Calm Calm - N/A   Overcast
10:37 AM 30.9 °F - 29.3 °F 94% 29.91 in 4.0 mi Calm Calm - N/A   Overcast
10:58 AM 31.1 °F - 29.1 °F 92% 29.91 in 4.0 mi Calm Calm - N/A   Overcast
11:18 AM 31.6 °F - 29.7 °F 92% 29.90 in 4.0 mi Calm Calm - N/A   Overcast
11:37 AM 32.0 °F - 29.8 °F 92% 29.90 in 5.0 mi Calm Calm - N/A   Overcast
11:58 AM 33.1 °F - 30.0 °F 89% 29.89 in 7.0 mi Calm Calm - N/A   Overcast
12:17 PM 33.3 °F - 30.2 °F 89% 29.89 in 7.0 mi Calm Calm - N/A   Overcast
12:38 PM 34.7 °F 28.1 °F 30.6 °F 85% 29.88 in 7.0 mi ESE 8.1 mph - N/A   Overcast
12:57 PM 35.8 °F 33.0 °F 30.9 °F 82% 29.87 in 7.0 mi East 3.5 mph - N/A   Overcast
1:18 PM 37.6 °F 31.6 °F 31.5 °F 79% 29.85 in 10.0 mi East 8.1 mph - N/A   Overcast
1:37 PM 38.5 °F 32.1 °F 32.0 °F 78% 29.84 in 10.0 mi ESE 9.2 mph - N/A   Overcast
1:58 PM 41.7 °F 35.2 °F 33.1 °F 71% 29.83 in 10.0 mi SE 11.5 mph 17.3 mph N/A   Mostly Cloudy
2:18 PM 43.0 °F 36.4 °F 33.6 °F 70% 29.81 in 10.0 mi ESE 12.7 mph 17.3 mph N/A   Scattered Clouds
2:38 PM 44.6 °F 38.8 °F 34.5 °F 68% 29.81 in 10.0 mi ESE 11.5 mph 16.1 mph N/A   Clear
2:57 PM 46.4 °F 40.4 °F 35.2 °F 65% 29.80 in 10.0 mi ESE 13.8 mph - N/A   Clear
3:18 PM 47.3 °F - 36.3 °F 66% 29.80 in 10.0 mi SE 12.7 mph 17.3 mph N/A   Scattered Clouds
3:37 PM 48.2 °F - 36.7 °F 64% 29.80 in 10.0 mi SSE 10.4 mph - N/A   Mostly Cloudy
3:57 PM 47.3 °F - 37.0 °F 68% 29.80 in 10.0 mi SE 9.2 mph - N/A   Overcast
4:17 PM 48.2 °F - 36.9 °F 65% 29.78 in 10.0 mi SE 10.4 mph - N/A   Overcast
4:37 PM 47.5 °F - 36.9 °F 67% 29.76 in 10.0 mi ESE 8.1 mph - N/A   Overcast
4:57 PM 47.3 °F - 37.6 °F 69% 29.77 in 10.0 mi ESE 10.4 mph - N/A   Overcast
5:17 PM 46.2 °F 41.2 °F 38.7 °F 75% 29.76 in 10.0 mi SE 10.4 mph - N/A   Drizzle
5:37 PM 45.9 °F 41.2 °F 38.7 °F 76% 29.77 in 10.0 mi SE 9.2 mph - N/A   Overcast
5:58 PM 45.5 °F 41.8 °F 39.4 °F 79% 29.77 in 7.0 mi SE 6.9 mph - N/A   Light Drizzle
6:18 PM 45.3 °F - 40.1 °F 82% 29.78 in 5.0 mi Calm Calm - 0.01 in Rain Rain
6:38 PM 44.8 °F - 41.4 °F 88% 29.77 in 4.0 mi Calm Calm - 0.02 in Rain Light Rain
6:58 PM 44.6 °F - 41.9 °F 90% 29.77 in 4.0 mi Calm Calm - 0.04 in Rain Rain
7:17 PM 44.6 °F - 41.9 °F 90% 29.76 in 4.0 mi Calm Calm - N/A Rain Light Rain
7:38 PM 44.1 °F - 41.9 °F 92% 29.75 in 3.0 mi Calm Calm - 0.01 in Rain Rain
7:58 PM 43.7 °F - 41.5 °F 92% 29.75 in 4.0 mi Calm Calm - 0.03 in Rain Light Rain
8:17 PM 43.7 °F - 41.5 °F 92% 29.75 in 4.0 mi Calm Calm - 0.02 in Rain Light Rain
8:37 PM 43.2 °F - 41.4 °F 93% 29.75 in 3.0 mi Calm Calm - 0.06 in Rain Rain
8:57 PM 43.2 °F - 41.9 °F 95% 29.75 in 2.5 mi Calm Calm - 0.11 in Rain Rain
9:17 PM 43.0 °F - 41.5 °F 95% 29.75 in 2.0 mi Calm Calm - 0.06 in Rain Rain
9:37 PM 42.8 °F 38.0 °F 41.7 °F 96% 29.73 in 2.0 mi ESE 8.1 mph - 0.12 in Rain Rain
9:57 PM 42.8 °F 38.6 °F 41.7 °F 96% 29.73 in 2.0 mi ESE 6.9 mph - 0.13 in Rain Light Rain
10:17 PM 42.8 °F - 41.4 °F 95% 29.72 in 1.0 mi Calm Calm - 0.01 in Rain Rain
10:37 PM 42.6 °F - 41.5 °F 96% 29.72 in 1.0 mi Calm Calm - 0.02 in   Drizzle
10:58 PM 42.6 °F - 41.4 °F 95% 29.72 in 1.2 mi Calm Calm - 0.02 in   Light Drizzle
11:18 PM 42.8 °F - 41.5 °F 95% 29.71 in 1.0 mi Calm Calm - N/A   Light Drizzle
11:37 PM 42.6 °F - 41.5 °F 96% 29.70 in 1.0 mi Calm Calm - N/A   Overcast
11:58 PM 42.4 °F 37.0 °F 41.4 °F 96% 29.68 in 0.8 mi ESE 9.2 mph - 0.01 in Rain Light Rain